This is the latest recevied weather packets stored in our database for station/object OK1KKY-18. If no packets are shown the sender has not sent any weather packets the latest 10 day(s).
| Time | Temp. | Humidity | Pressure | Rain* | Wind** | Luminosity | Snow |
|---|---|---|---|---|---|---|---|
| 1777961160 | 13.33° C | 77% | 1010.3 hPa | - | - | - | - |
| 1777960560 | 12.78° C | 78% | 1010.3 hPa | - | - | - | - |
| 1777959960 | 12.78° C | 80% | 1010.3 hPa | - | - | - | - |
| 1777959360 | 12.22° C | 84% | 1010.4 hPa | - | - | - | - |
| 1777958760 | 12.22° C | 84% | 1010.3 hPa | - | - | - | - |
| 1777958160 | 11.67° C | 84% | 1010.1 hPa | - | - | - | - |
| 1777957561 | 11.67° C | 85% | 1010.1 hPa | - | - | - | - |
| 1777956960 | 11.67° C | 84% | 1010 hPa | - | - | - | - |
| 1777956360 | 11.11° C | 85% | 1009.9 hPa | - | - | - | - |
| 1777955760 | 11.11° C | 86% | 1010.1 hPa | - | - | - | - |
| 1777955160 | 10.56° C | 88% | 1010.5 hPa | - | - | - | - |
| 1777954560 | 11.11° C | 88% | 1010.7 hPa | - | - | - | - |
| 1777953960 | 11.11° C | 85% | 1010.7 hPa | - | - | - | - |
| 1777953360 | 11.11° C | 84% | 1010.3 hPa | - | - | - | - |
| 1777952760 | 11.11° C | 86% | 1010.2 hPa | - | - | - | - |
| 1777952160 | 11.11° C | 87% | 1010.5 hPa | - | - | - | - |
| 1777951560 | 10.56° C | 88% | 1010.5 hPa | - | - | - | - |
| 1777950963 | 10.56° C | 88% | 1010.4 hPa | - | - | - | - |
| 1777950359 | 10.56° C | 89% | 1010.6 hPa | - | - | - | - |
| 1777949759 | 10.56° C | 88% | 1010.8 hPa | - | - | - | - |
| 1777949159 | 10.56° C | 88% | 1011 hPa | - | - | - | - |
| 1777948559 | 10.56° C | 87% | 1011.2 hPa | - | - | - | - |
| 1777947959 | 10.56° C | 88% | 1011.5 hPa | - | - | - | - |
| 1777947359 | 10.56° C | 87% | 1011.7 hPa | - | - | - | - |
| 1777946159 | 10.56° C | 87% | 1011.9 hPa | - | - | - | - |
* Rain since midnight (hover to see other rain measurements)
** Current wind speed in m/s (hover to see current wind gust speed)